Location: Bremen
(53.0833°N, 8.8000°E)
Time: 14:17:18
(UTC+02:00)

ISS - Pass Details

Date: 25 April 2025
Orbit: 416 x 419 km, 51.6° (Epoch: 14 May)

Event Time Altitude Azimuth Distance (km) Brightness Sun altitude
Exits shadow 03:44:41 11° 142° (SE) 1,408 -1.3 -17.1°
Maximum altitude 03:44:51 11° 139° (SE) 1,407 -1.2 -17.0°
Drops below altitude 10° 03:46:00 10° 119° (ESE) 1,494 -0.9 -16.9°
Sets 03:49:17 0° 84° (E) 2,363 0.7 -16.6°
